Wind_Speed
16 18 18 19 19 20 21 21 21 19 18 17 20 21 20 20 20 19 20 19 18 17 16 15 14 13 12 11 11 10 10 10 11 11 12 13 14 15 15 15 15 16 16 15
16 18 18 18 18 20 20 20 20 20 17 18 20 21 20 20 20 20 20 21 20 19 18 17 15 14 13 12 12 11 11 11 11 11 12 13 14 15 15 15 15 16 16 16
17 19 20 18 18 20 20 20 20 19 18 19 20 21 20 20 20 20 21 21 21 20 19 18 17 16 14 13 13 12 12 11 11 12 12 13 14 15 15 15 15 15 16 16
20 20 21 18 19 20 20 20 21 20 19 20 21 21 21 20 20 20 21 22 21 21 20 19 18 17 16 15 14 13 13 12 12 12 12 13 14 15 15 15 15 16 16 16
23 23 22 20 20 21 21 21 21 20 20 21 21 21 21 21 21 21 22 22 22 21 21 20 19 18 17 16 16 15 14 14 13 13 13 13 14 15 15 16 16 16 17 17
27 27 26 22 23 23 23 23 22 22 21 21 21 21 21 22 22 22 22 23 23 22 22 21 21 20 19 18 17 17 16 15 15 14 14 14 15 15 16 16 16 17 17 18
29 30 29 26 26 26 26 25 24 24 23 23 22 22 22 23 23 23 23 24 24 24 23 23 22 21 20 20 19 18 18 17 16 16 15 16 16 16 16 17 17 18 18 19
32 34 33 30 29 29 29 28 27 27 26 25 25 24 24 24 25 25 25 25 25 25 25 25 24 23 22 22 21 20 19 19 18 17 17 17 17 17 17 18 18 19 19 20
36 36 36 35 34 34 33 32 31 31 30 29 28 27 27 26 26 26 27 27 27 27 27 26 25 25 24 23 23 22 21 21 20 19 18 18 18 18 18 19 19 20 20 21
40 39 39 39 39 38 38 36 35 35 34 33 32 31 30 29 29 29 28 28 28 28 28 28 27 27 26 25 25 24 23 23 22 21 20 20 20 20 20 20 21 21 22 22
44 42 43 43 43 43 42 41 39 38 37 37 36 35 34 32 31 31 31 30 30 30 30 30 29 29 28 27 27 26 26 25 24 23 22 22 21 21 21 21 22 23 23 23
47 46 47 46 46 46 46 45 44 42 41 40 40 39 37 36 34 34 33 33 32 32 32 32 31 31 30 30 29 29 28 27 26 25 24 24 23 23 23 23 23 24 24 25
50 50 50 50 50 50 50 49 48 46 45 43 43 42 41 40 38 37 36 35 35 34 34 34 34 33 33 32 31 31 30 29 28 28 27 26 25 25 25 25 25 26 26 26
52 53 53 52 53 53 52 52 51 50 49 47 46 45 45 43 42 41 39 39 38 38 37 36 36 35 35 34 33 33 32 31 30 30 29 28 27 27 27 27 27 28 28 28
54 54 54 54 54 54 54 54 53 52 51 51 50 49 48 47 45 44 43 43 42 41 40 39 38 37 36 36 35 35 34 33 32 32 31 30 29 29 29 29 30 30 30 30
54 55 55 55 55 54 55 55 55 55 53 52 52 52 52 51 49 48 47 46 45 44 42 41 40 39 38 38 37 37 36 35 34 33 33 32 32 31 31 32 32 32 32 32
53 53 54 54 54 54 54 54 55 54 54 54 53 54 54 53 52 51 50 49 48 47 46 45 44 42 41 40 39 38 38 37 36 35 35 34 34 34 34 34 34 34 34 34
51 50 50 50 50 51 51 52 52 53 53 53 54 54 54 54 53 52 52 51 50 49 48 48 47 46 44 43 42 41 40 39 38 38 37 37 36 36 36 36 36 36 36 36
47 47 47 47 47 47 48 48 49 50 51 51 52 53 53 54 54 54 53 52 51 50 49 49 49 48 47 46 45 44 43 42 41 40 39 39 39 38 38 38 39 39 38 38
45 45 45 44 44 44 45 46 46 47 48 49 49 50 51 52 53 54 54 53 52 52 51 50 50 50 50 49 47 47 46 45 44 43 43 42 41 41 40 40 40 40 40 40
42 42 42 42 42 42 42 43 44 45 46 47 47 48 49 50 51 52 52 53 53 53 52 52 52 52 51 50 50 49 48 47 47 46 45 45 44 43 43 43 43 42 42 41
40 40 40 40 40 40 41 41 41 42 44 45 44 45 46 47 49 51 52 52 52 52 52 52 52 51 51 52 51 50 49 49 48 47 47 46 45 45 44 44 44 44 43 44
39 39 38 38 38 38 38 38 38 39 40 41 41 42 43 44 45 47 50 51 51 51 51 51 51 51 51 50 50 50 49 49 49 49 49 48 48 47 46 46 46 45 45 45
37 37 37 37 36 36 36 36 36 36 37 38 39 39 41 42 42 43 46 48 50 50 50 50 50 51 51 50 50 51 50 50 50 49 49 49 49 48 47 46 46 45 45 44
37 37 36 36 35 35 34 34 34 34 35 36 37 37 38 39 40 41 43 45 47 48 49 50 50 50 50 51 50 50 50 50 49 49 48 48 48 47 46 46 46 45 45 44
37 36 36 36 35 35 34 34 34 34 34 34 36 37 37 38 39 39 41 43 44 46 47 49 49 49 49 50 50 49 48 48 48 47 47 47 46 47 46 46 45 45 44 44
39 38 37 36 36 35 34 34 33 34 35 35 34 35 36 36 37 38 40 42 42 43 44 45 46 47 48 48 48 47 46 45 45 46 46 45 45 45 44 44 44 43 43 42
Wind_Direction
269 271 272 273 274 275 274 275 277 274 268 263 258 256 253 250 247 242 237 236 238 240 243 247 252 260 270 281 292 300 309 318 325 332 337 341 344 346 346 346 346 347 347 348
275 275 275 276 276 277 277 276 275 271 267 262 257 256 255 252 248 243 238 236 239 241 243 247 252 258 265 275 284 292 300 309 317 324 330 335 339 341 342 344 344 344 344 345
276 276 277 278 278 279 279 278 274 270 264 259 257 256 254 251 248 244 241 239 239 241 243 246 251 256 262 270 278 285 291 300 309 316 322 328 332 335 337 339 340 341 341 342
278 276 276 280 277 277 276 274 272 269 265 262 258 255 254 252 249 245 243 241 240 241 244 247 251 255 260 267 273 279 285 292 300 308 315 321 326 329 332 334 336 337 337 338
278 277 277 277 277 276 274 271 270 269 266 264 261 258 254 251 248 245 244 241 240 242 244 247 250 254 259 264 269 274 279 286 293 300 307 314 320 324 327 328 330 331 333 333
278 277 277 277 274 273 272 270 268 267 265 263 261 257 253 251 248 246 244 242 242 243 245 247 249 253 257 261 265 270 274 280 285 292 300 306 312 319 324 325 326 326 328 328
277 277 277 277 274 272 268 267 266 265 264 263 260 257 252 250 249 247 245 244 244 245 246 247 249 252 256 259 262 266 270 274 280 286 293 299 305 312 317 321 322 323 324 325
273 274 275 275 272 270 268 266 263 262 262 261 260 257 254 251 249 247 245 245 245 246 246 246 248 251 254 257 260 264 267 270 275 280 287 293 299 305 311 314 317 319 320 322
271 271 272 271 269 268 267 265 263 261 259 259 258 257 255 253 251 248 246 245 245 245 244 245 247 250 253 256 259 261 264 267 271 276 281 287 293 299 305 309 312 315 317 318
271 270 269 269 267 266 265 263 262 261 259 258 257 256 255 253 252 251 249 247 245 245 245 246 247 249 251 254 257 259 262 264 268 272 277 283 289 294 299 304 308 311 313 315
271 270 267 265 265 264 264 263 262 261 259 258 257 256 255 253 252 251 250 249 247 246 246 247 248 249 251 253 256 258 260 263 266 270 274 279 284 290 295 300 304 308 310 311
271 269 267 264 263 263 262 262 261 260 259 258 256 255 254 253 252 251 250 250 249 248 248 249 249 250 251 253 255 257 259 261 264 267 271 276 281 286 291 296 300 304 306 308
271 269 267 265 263 262 261 260 259 259 258 256 255 255 253 252 252 251 250 249 249 249 249 249 249 250 251 253 255 256 258 260 262 265 269 274 279 283 288 293 296 300 303 304
271 269 267 266 263 262 261 260 258 257 257 255 254 253 253 252 251 250 250 249 249 249 249 249 250 251 252 253 254 256 257 259 261 264 268 272 277 281 285 290 294 296 299 301
272 270 268 266 264 262 261 259 258 257 256 254 253 252 251 250 249 249 249 249 248 249 249 249 249 250 252 253 254 255 256 258 260 263 267 271 275 279 283 288 292 294 296 298
274 272 270 268 265 263 262 260 258 257 255 253 252 251 250 249 248 247 248 248 248 248 248 248 249 249 250 252 253 254 256 257 259 262 266 270 274 278 282 286 290 293 295 297
275 273 271 269 267 264 262 260 258 257 255 252 251 250 249 248 247 246 245 246 246 246 246 247 247 248 249 250 252 253 255 257 259 262 265 269 273 277 281 285 288 291 294 296
275 273 272 270 268 264 262 260 258 256 255 253 251 249 248 247 246 245 244 244 244 244 244 245 246 247 248 249 250 252 254 256 259 262 265 269 273 277 281 284 287 290 292 294
275 274 272 270 268 264 261 259 258 256 254 253 251 249 248 247 245 243 243 243 243 243 243 243 245 246 247 248 249 251 254 256 259 262 265 269 272 276 280 283 285 288 291 293
274 273 271 270 268 265 262 258 256 255 253 252 251 249 247 246 244 243 242 241 242 242 242 242 243 244 246 247 249 251 254 256 259 262 265 268 272 275 278 281 284 287 289 291
274 273 271 270 268 266 263 259 256 254 252 252 251 249 247 246 244 243 242 242 241 241 242 242 243 244 245 247 249 251 253 256 259 262 265 268 271 274 277 280 282 285 288 290
272 272 272 270 268 266 263 260 258 255 253 252 251 250 248 247 245 243 241 241 240 241 241 242 243 244 245 247 249 251 253 255 258 262 265 268 271 273 276 279 281 283 286 288
271 271 271 271 269 268 265 262 260 257 254 253 251 250 249 247 247 245 242 240 239 240 240 241 242 244 245 247 249 250 252 255 257 261 264 267 270 273 275 278 280 282 284 286
273 271 271 270 271 271 268 265 263 261 258 255 254 252 250 248 248 247 244 241 239 238 239 240 241 243 245 247 249 251 253 255 258 261 264 267 269 271 274 277 279 281 284 286
274 272 271 271 272 271 269 267 265 264 262 259 256 255 253 250 248 247 245 241 238 238 238 239 240 242 244 246 249 251 253 255 257 260 263 265 268 270 273 275 278 280 282 284
274 274 273 272 272 271 268 267 266 264 262 261 257 255 254 251 247 245 243 240 239 238 238 239 240 242 243 245 247 251 253 256 258 260 263 265 267 269 272 275 277 279 281 282
274 275 274 272 271 271 270 267 266 263 261 260 258 256 254 251 247 243 241 239 238 238 238 238 239 240 241 244 246 249 252 255 258 260 262 265 267 269 271 273 276 277 279 280
Height
5819 5818 5817 5816 5816 5815 5814 5813 5813 5813 5813 5813 5811 5811 5812 5813 5814 5816 5817 5819 5820 5822 5823 5823 5823 5823 5823 5822 5821 5819 5818 5816 5813 5811 5808 5805 5802 5799 5796 5793 5790 5786 5783 5780
5814 5813 5812 5811 5811 5810 5809 5808 5807 5807 5808 5807 5806 5806 5807 5808 5809 5811 5812 5814 5816 5817 5818 5819 5819 5820 5819 5819 5818 5816 5815 5813 5811 5809 5806 5803 5800 5797 5794 5791 5788 5785 5782 5779
5810 5808 5807 5807 5807 5805 5804 5803 5802 5801 5803 5801 5801 5801 5802 5803 5804 5806 5807 5809 5811 5812 5813 5814 5815 5815 5815 5815 5814 5813 5812 5810 5808 5806 5804 5801 5798 5795 5792 5789 5786 5783 5781 5777
5804 5804 5802 5805 5801 5800 5798 5797 5796 5796 5796 5796 5795 5796 5797 5798 5799 5801 5802 5804 5805 5807 5808 5809 5810 5811 5811 5811 5810 5809 5808 5807 5805 5803 5801 5799 5796 5793 5790 5787 5784 5782 5779 5776
5798 5796 5796 5798 5796 5794 5792 5792 5791 5790 5791 5790 5790 5791 5792 5792 5794 5795 5796 5798 5800 5801 5803 5804 5805 5805 5806 5806 5805 5805 5804 5803 5801 5799 5798 5795 5793 5790 5787 5785 5782 5779 5776 5773
5791 5790 5790 5792 5790 5788 5787 5786 5786 5785 5785 5785 5785 5786 5787 5787 5788 5789 5790 5792 5794 5795 5797 5798 5799 5800 5800 5800 5800 5800 5799 5798 5797 5795 5794 5792 5789 5787 5784 5782 5779 5776 5774 5771
5783 5781 5782 5784 5782 5781 5781 5781 5779 5778 5778 5779 5779 5780 5780 5781 5782 5783 5784 5786 5787 5789 5790 5791 5793 5793 5794 5794 5794 5794 5794 5793 5792 5791 5789 5787 5785 5783 5781 5778 5775 5773 5770 5767
5775 5774 5775 5774 5773 5773 5773 5772 5772 5771 5771 5772 5772 5772 5773 5774 5775 5776 5777 5778 5780 5782 5783 5784 5786 5787 5787 5788 5788 5788 5788 5787 5786 5785 5784 5783 5781 5779 5776 5774 5772 5769 5766 5763
5766 5767 5765 5763 5763 5762 5762 5762 5762 5763 5763 5764 5764 5765 5766 5767 5767 5768 5769 5771 5772 5774 5775 5777 5778 5779 5780 5781 5781 5781 5781 5781 5780 5780 5778 5777 5776 5774 5772 5769 5767 5764 5762 5759
5753 5754 5754 5752 5751 5751 5751 5752 5752 5753 5754 5755 5755 5756 5757 5758 5759 5760 5761 5762 5764 5765 5767 5769 5770 5771 5772 5773 5774 5774 5774 5774 5774 5773 5772 5771 5770 5768 5766 5764 5762 5759 5757 5754
5740 5741 5740 5739 5738 5738 5739 5740 5741 5742 5743 5744 5745 5746 5747 5748 5750 5751 5752 5754 5755 5757 5758 5760 5761 5762 5764 5765 5765 5766 5766 5766 5766 5766 5765 5764 5763 5762 5760 5758 5756 5754 5751 5748
5725 5726 5724 5725 5725 5724 5725 5726 5727 5729 5730 5732 5733 5735 5736 5738 5739 5741 5742 5744 5746 5747 5749 5750 5752 5753 5754 5756 5756 5757 5758 5758 5758 5758 5758 5757 5756 5755 5753 5751 5749 5747 5745 5742
5708 5708 5707 5709 5709 5710 5710 5711 5712 5714 5716 5718 5720 5721 5724 5726 5728 5730 5731 5733 5735 5737 5738 5740 5741 5743 5745 5746 5747 5748 5749 5749 5750 5750 5749 5749 5748 5747 5746 5744 5742 5740 5738 5735
5690 5689 5690 5691 5691 5692 5693 5695 5697 5699 5701 5703 5705 5707 5709 5712 5715 5717 5719 5721 5723 5725 5727 5729 5731 5733 5734 5736 5737 5738 5739 5740 5740 5740 5740 5740 5740 5739 5738 5736 5735 5733 5730 5728
5672 5671 5671 5672 5672 5673 5675 5677 5679 5682 5684 5686 5689 5691 5694 5697 5700 5703 5705 5708 5710 5712 5715 5717 5719 5722 5723 5725 5726 5727 5728 5730 5730 5731 5731 5731 5730 5730 5729 5727 5726 5724 5722 5720
5653 5651 5651 5652 5653 5654 5656 5658 5660 5663 5666 5668 5671 5674 5677 5680 5684 5687 5690 5693 5696 5699 5702 5705 5707 5710 5711 5713 5715 5716 5718 5719 5720 5721 5721 5721 5721 5720 5719 5718 5716 5715 5713 5710
5634 5633 5633 5633 5634 5635 5636 5638 5641 5644 5647 5650 5653 5656 5659 5662 5666 5670 5674 5677 5681 5684 5687 5690 5693 5696 5699 5701 5703 5705 5706 5708 5709 5710 5710 5710 5710 5710 5709 5708 5706 5705 5703 5701
5614 5614 5614 5614 5614 5616 5617 5619 5621 5624 5627 5630 5634 5637 5640 5644 5648 5653 5657 5660 5664 5668 5672 5676 5679 5682 5685 5688 5690 5692 5694 5696 5697 5698 5699 5699 5699 5699 5698 5697 5696 5694 5692 5690
5597 5597 5597 5597 5597 5598 5599 5601 5603 5605 5608 5611 5615 5618 5622 5626 5630 5634 5639 5643 5647 5652 5657 5660 5664 5668 5671 5674 5676 5679 5681 5683 5684 5686 5687 5687 5687 5687 5686 5686 5684 5683 5681 5679
5581 5580 5580 5580 5580 5581 5582 5584 5586 5588 5590 5593 5596 5600 5604 5608 5611 5616 5621 5626 5631 5636 5640 5644 5648 5652 5656 5659 5662 5665 5667 5669 5671 5673 5674 5674 5675 5675 5674 5673 5672 5671 5669 5667
5566 5565 5565 5564 5565 5565 5566 5568 5569 5572 5574 5576 5579 5583 5587 5590 5594 5598 5603 5609 5614 5618 5623 5627 5632 5636 5640 5644 5647 5650 5653 5655 5657 5659 5660 5661 5661 5661 5661 5661 5660 5659 5657 5655
5552 5551 5550 5550 5550 5551 5552 5553 5554 5556 5558 5561 5563 5566 5570 5574 5577 5582 5586 5592 5597 5601 5606 5611 5616 5620 5625 5629 5632 5635 5638 5641 5643 5645 5646 5647 5647 5648 5648 5647 5647 5646 5644 5643
5539 5538 5537 5537 5537 5537 5538 5539 5540 5541 5543 5546 5548 5551 5554 5558 5561 5565 5570 5575 5580 5585 5590 5595 5600 5605 5609 5613 5617 5620 5623 5626 5628 5630 5631 5632 5633 5634 5634 5634 5633 5632 5631 5629
5526 5525 5525 5524 5524 5524 5525 5526 5527 5528 5530 5532 5534 5537 5539 5543 5546 5550 5554 5559 5564 5569 5574 5579 5584 5589 5593 5597 5601 5604 5607 5610 5613 5615 5617 5618 5619 5619 5620 5620 5619 5618 5617 5616
5513 5513 5512 5512 5512 5512 5513 5513 5514 5515 5517 5518 5520 5523 5525 5528 5532 5535 5539 5544 5548 5554 5559 5564 5568 5573 5577 5581 5585 5589 5592 5595 5598 5600 5602 5603 5604 5605 5605 5605 5605 5604 5603 5602
5501 5500 5500 5500 5500 5500 5500 5501 5502 5503 5504 5505 5507 5509 5512 5514 5518 5521 5525 5529 5533 5538 5543 5548 5553 5558 5562 5567 5570 5574 5577 5580 5583 5585 5587 5588 5590 5590 5591 5591 5591 5590 5589 5588
5488 5488 5487 5487 5487 5487 5488 5489 5489 5490 5492 5493 5495 5497 5499 5501 5504 5508 5511 5515 5519 5524 5529 5533 5538 5543 5547 5552 5555 5559 5562 5565 5568 5570 5572 5574 5575 5576 5576 5577 5576 5576 5575 5574